User: anonymous   Login
Location: Unspecified
(0.0000°N, 0.0000°E)
Time: 22:31:01
(UTC+00:00)
Language:

OAO 3 Copernicus - Orbit

View from above orbital plane
View from above orbital plane
View from above satellite
View from above satellite

Ground track
Ground track

The orbit data is extracted from the following two-line orbital elements,

1  6153U 72065A   23083.14937135  .00001753  00000-0  37738-3 0  9991
2  6153  35.0079 331.1518 0007333 319.1901 172.1766 14.58345637688405
Epoch (UTC): 24 March 2023 03:35:05
Eccentricity: 0.0007333
inclination: 35.0079°
perigee height: 693 km
apogee height: 704 km
right ascension of ascending node: 331.1518°
argument of perigee: 319.1901°
revolutions per day: 14.58345637
mean anomaly at epoch: 172.1766°
orbit number at epoch: 68840

The dashed part of the orbit path shows where the satellite is in the earth's shadow,  

DLR